Weather History for Montague, CA

Change the Weather History Date:

Friday, December 2, 2011

  Actual Average Record
Temperature  
Mean Temperature 35 °F 36 °F  
Max Temperature 54 °F 45 °F 59 °F (1958)
Min Temperature 15 °F 26 °F 15 °F (2011)
Degree Days  
Heating Degree Days 30 29  
Month to date heating degree days 58 58  
Since 1 July heating degree days 1260 1364  
Cooling Degree Days 0 0  
Month to date cooling degree days 0 0  
Year to date cooling degree days 488 544  
Moisture  
Dew Point 19 °F    
Average Humidity 61    
Maximum Humidity 84    
Minimum Humidity 24    
Precipitation  
Precipitation 0.00 in 0.08 in 1.68 in (1987)
Month to date precipitation 0.00 0.15  
Year to date precipitation 11.38 15.96  
Sea Level Pressure  
Sea Level Pressure 30.37 in    
Wind  
Wind Speed 5 mph (NNE)    
Max Wind Speed 20 mph    
Max Gust Speed 23 mph    
Visibility 10 miles    
Events      
T = Trace of Precipitation, MM = Missing Value Source: NWS Daily Summary

Daily Weather History Graph

Daily Weather History Graph

Search for Another Location

Airport:

Trip Planner

Search our weather history database for the weather conditions in past years. The results will help you decide how hot, cold, wet, or windy it might be!

Date:

Astronomy

Dec. 02, 2011 Rise Set
Actual Time 7:18 AM PST 4:39 PM PST
Civil Twilight 6:47 AM PST 5:10 PM PST
Nautical Twilight 6:12 AM PST 5:45 PM PST
Astronomical Twilight 5:39 AM PST 6:19 PM PST
Moon 12:26 PM PST (12/2) No Moon Set
Length of Visible Light 10h 23m
Length of Day
9h 21m
First Quarter, 54% of the Moon is Illuminated
Dec 2
First Quarter
Dec 10
Full
Dec 17
Last Quarter
Dec 24
New
Dec 31
First Quarter

Hourly Weather History & Observations

Time (PST) Temp. Windchill Dew Point Humidity Pressure Visibility Wind Dir Wind Speed Gust Speed Precip Events Conditions
12:53 AM 24.1 °F 15.2 °F 18.0 °F 77% 30.45 in 10.0 mi NNE 8.1 mph - N/A   Clear
1:53 AM 25.0 °F - 17.1 °F 72% 30.43 in 10.0 mi Calm Calm - N/A   Clear
3:53 AM 19.9 °F - 16.0 °F 85% 30.40 in 10.0 mi Calm Calm - N/A   Clear
4:53 AM 19.9 °F - 15.1 °F 81% 30.41 in 10.0 mi Calm Calm - N/A   Clear
5:53 AM 19.0 °F - 15.1 °F 85% 30.40 in 10.0 mi Calm Calm - N/A   Clear
6:53 AM 17.1 °F 8.7 °F 14.0 °F 88% 30.40 in 10.0 mi North 5.8 mph - N/A   Clear
7:53 AM 19.0 °F - 14.0 °F 81% 30.43 in 10.0 mi Calm Calm - N/A   Clear
8:53 AM 26.1 °F - 19.9 °F 78% 30.40 in 10.0 mi Calm Calm - N/A   Clear
9:53 AM 32.0 °F 26.4 °F 21.9 °F 66% 30.40 in 10.0 mi SW 5.8 mph - N/A   Clear
10:53 AM 37.9 °F - 21.9 °F 53% 30.38 in 10.0 mi Calm Calm - N/A   Clear
11:53 AM 44.1 °F - 21.0 °F 40% 30.34 in 10.0 mi Calm Calm - N/A   Clear
12:53 PM 48.9 °F - 21.0 °F 33% 30.30 in 10.0 mi SE 3.5 mph - N/A   Clear
1:53 PM 51.1 °F - 21.0 °F 31% 30.27 in 10.0 mi Variable 4.6 mph - N/A   Clear
2:25 PM 53.6 °F - 14.0 °F 21% 30.20 in 10.0 mi North 17.3 mph - N/A   Clear
2:53 PM 51.1 °F - 15.1 °F 24% 30.27 in 10.0 mi NNE 17.3 mph - N/A   Clear
3:53 PM 46.9 °F - 17.1 °F 30% 30.29 in 10.0 mi North 12.7 mph - N/A   Clear
4:53 PM 39.0 °F 31.4 °F 19.0 °F 45% 30.33 in 10.0 mi NNE 12.7 mph - N/A   Clear
5:53 PM 34.0 °F 25.0 °F 21.0 °F 59% 30.37 in 10.0 mi North 12.7 mph - N/A   Clear
6:53 PM 34.0 °F 26.6 °F 21.9 °F 61% 30.40 in 10.0 mi North 9.2 mph - N/A   Clear
7:53 PM 33.1 °F 27.7 °F 23.0 °F 66% 30.40 in 10.0 mi North 5.8 mph - N/A   Clear
8:53 PM 33.1 °F 23.9 °F 24.1 °F 70% 30.41 in 10.0 mi North 12.7 mph - N/A   Clear
9:53 PM 33.1 °F 26.1 °F 25.0 °F 72% 30.41 in 10.0 mi NNE 8.1 mph - N/A   Clear
10:53 PM 30.9 °F 26.2 °F 24.1 °F 76% 30.40 in 10.0 mi SSE 4.6 mph - N/A   Clear
11:53 PM 32.0 °F - 21.9 °F 66% 30.39 in 10.0 mi Calm Calm - N/A   Clear